,,,PA_Meas_PMT16A,,PR_Meas_QMR101_102,,RH_Meas_QMH101,,SR_Meas_QMS101,,TA_Meas_QMH101,,GenWind,,GenWind,
date,time,status,PA,status,PR,status,RH,status,SR,status,TA,status,DirAvg,status,SpdAvg,
2009-07-05, 00:00:04,VALID,1001.16,VALID,0,VALID,90.0753,VALID,0,VALID,22.5696,VALID,165,VALID,0.273438,
2009-07-05, 00:01:04,VALID,1001.18,VALID,0,VALID,90.1897,VALID,0,VALID,22.5892,VALID,165,VALID,0.340234,
2009-07-05, 00:02:04,VALID,1001.14,VALID,0,VALID,90.1668,VALID,0,VALID,22.5892,VALID,164,VALID,0.365625,
2009-07-05, 00:03:04,VALID,1001.14,VALID,0,VALID,90.0753,VALID,0,VALID,22.5892,VALID,164,VALID,0.313672,
2009-07-05, 00:04:04,VALID,1001.13,VALID,0,VALID,90.2431,VALID,0,VALID,22.5696,VALID,164,VALID,0.299609,
2009-07-05, 00:05:04,VALID,1001.14,VALID,0,VALID,90.0829,VALID,0,VALID,22.5696,VALID,164,VALID,0.439453,
2009-07-05, 00:06:04,VALID,1001.15,VALID,0,VALID,89.7701,VALID,0,VALID,22.5501,VALID,164,VALID,0.351172,
2009-07-05, 00:07:04,VALID,1001.17,VALID,0,VALID,89.9837,VALID,0,VALID,22.5501,VALID,164,VALID,0.327344,
2009-07-05, 00:08:04,VALID,1001.16,VALID,0,VALID,89.8846,VALID,0,VALID,22.5306,VALID,164,VALID,0.424219,
2009-07-05, 00:09:04,VALID,1001.14,VALID,0,VALID,90.3271,VALID,0,VALID,22.4916,VALID,70,VALID,0.709375,
2009-07-05, 00:10:04,VALID,1001.15,VALID,0,VALID,90.3805,VALID,0,VALID,22.4721,VALID,67,VALID,0.935156,
2009-07-05, 00:11:04,VALID,1001.14,VALID,0,VALID,90.5178,VALID,0,VALID,22.4526,VALID,67,VALID,1.14297,
2009-07-05, 00:12:04,VALID,1001.12,VALID,0,VALID,90.35,VALID,0,VALID,22.4136,VALID,54,VALID,1.33047,
2009-07-05, 00:13:04,VALID,1001.12,VALID,0,VALID,90.8535,VALID,0,VALID,22.3746,VALID,52,VALID,1.58438,
2009-07-05, 00:14:04,VALID,1001.14,VALID,0,VALID,91.2426,VALID,0,VALID,22.3356,VALID,47,VALID,1.58047,
2009-07-05, 00:15:04,VALID,1001.14,VALID,0,VALID,91.5936,VALID,0.112286,VALID,22.2771,VALID,41,VALID,1.49102,
2009-07-05, 00:16:04,VALID,1001.14,VALID,0,VALID,91.998,VALID,0,VALID,22.2788,VALID,41,VALID,1.33008,
2009-07-05, 00:17:04,VALID,1001.15,VALID,0,VALID,92.12,VALID,0,VALID,22.2186,VALID,41,VALID,1.39805,
2009-07-05, 00:18:04,VALID,1001.15,VALID,0,VALID,92.0361,VALID,0,VALID,22.199,VALID,41,VALID,0.807813,
2009-07-05, 00:19:04,VALID,1001.17,VALID,0,VALID,91.9903,VALID,0,VALID,22.16,VALID,41,VALID,0.786328,
2009-07-05, 00:20:04,VALID,1001.14,VALID,0,VALID,92.2192,VALID,0,VALID,22.121,VALID,41,VALID,1.04297,
2009-07-05, 00:21:04,VALID,1001.1,VALID,0,VALID,92.7151,VALID,0,VALID,22.121,VALID,41,VALID,1.28516,
2009-07-05, 00:22:04,VALID,1001.15,VALID,0,VALID,92.7228,VALID,0,VALID,22.121,VALID,41,VALID,1.21641,
2009-07-05, 00:23:04,VALID,1001.14,VALID,0,VALID,92.3794,VALID,0,VALID,22.082,VALID,36,VALID,0.853125,
2009-07-05, 00:24:04,VALID,1001.15,VALID,0,VALID,92.2879,VALID,0,VALID,22.0447,VALID,33,VALID,0.555078,
2009-07-05, 00:25:04,VALID,1001.17,VALID,0,VALID,92.4481,VALID,0,VALID,21.965,VALID,33,VALID,0.455078,
2009-07-05, 00:26:04,VALID,1001.11,VALID,0,VALID,92.6312,VALID,0,VALID,21.926,VALID,15,VALID,0.691406,
2009-07-05, 00:27:04,VALID,1001.1,VALID,0,VALID,92.9745,VALID,0,VALID,21.9455,VALID,353,VALID,0.587891,
2009-07-05, 00:28:04,VALID,1001.09,VALID,0,VALID,93.15,VALID,0,VALID,21.965,VALID,353,VALID,0.553516,
2009-07-05, 00:29:04,VALID,1001.12,VALID,0,VALID,93.1882,VALID,0,VALID,21.9845,VALID,353,VALID,0.323047,
2009-07-05, 00:30:04,VALID,1001.12,VALID,0,VALID,93.0737,VALID,0,VALID,21.926,VALID,353,VALID,0.184375,
2009-07-05, 00:31:04,VALID,1001.09,VALID,0,VALID,93.2034,VALID,0,VALID,21.9472,VALID,353,VALID,0.528125,
2009-07-05, 00:32:04,VALID,1001.09,VALID,0,VALID,93.1424,VALID,0,VALID,21.926,VALID,353,VALID,0.638281,
2009-07-05, 00:33:04,VALID,1001.09,VALID,0,VALID,93.1805,VALID,0,VALID,21.887,VALID,353,VALID,0.430859,
2009-07-05, 00:34:04,VALID,1001.09,VALID,0,VALID,93.2187,VALID,0,VALID,21.8887,VALID,353,VALID,0.431641,
2009-07-05, 00:35:04,VALID,1001.07,VALID,0,VALID,93.3866,VALID,0,VALID,21.887,VALID,353,VALID,0.408203,
2009-07-05, 00:36:04,VALID,1001.08,VALID,0,VALID,93.5086,VALID,0,VALID,21.887,VALID,354,VALID,0.669922,
2009-07-05, 00:37:04,VALID,1001.06,VALID,0,VALID,93.44,VALID,0,VALID,21.887,VALID,357,VALID,0.550781,
2009-07-05, 00:38:04,VALID,1001.08,VALID,0,VALID,93.4171,VALID,0,VALID,21.848,VALID,357,VALID,0.44375,
2009-07-05, 00:39:04,VALID,1001.04,VALID,0,VALID,93.4323,VALID,0,VALID,21.8692,VALID,357,VALID,0.425,
2009-07-05, 00:40:04,VALID,1001.01,VALID,0,VALID,93.5086,VALID,0,VALID,21.848,VALID,357,VALID,0.275,
2009-07-05, 00:41:04,VALID,1001.03,VALID,0,VALID,93.5697,VALID,0,VALID,21.8887,VALID,357,VALID,0.257422,
2009-07-05, 00:42:04,VALID,1001.02,VALID,0,VALID,93.5773,VALID,0,VALID,21.8692,VALID,357,VALID,0.369141,
2009-07-05, 00:43:04,VALID,1001.01,VALID,0,VALID,93.6154,VALID,0,VALID,21.8692,VALID,357,VALID,0.394531,
2009-07-05, 00:44:04,VALID,1001,VALID,0,VALID,93.6383,VALID,0,VALID,21.8496,VALID,357,VALID,0.392969,
2009-07-05, 00:45:04,VALID,1001.01,VALID,0,VALID,93.6383,VALID,0,VALID,21.8692,VALID,357,VALID,0.414844,
2009-07-05, 00:46:04,VALID,1000.97,VALID,0,VALID,93.6994,VALID,0,VALID,21.8887,VALID,357,VALID,0.3,
2009-07-05, 00:47:04,VALID,1000.93,VALID,0,VALID,93.7985,VALID,0,VALID,21.887,VALID,357,VALID,0.280859,
2009-07-05, 00:48:04,VALID,1000.91,VALID,0,VALID,93.7833,VALID,0,VALID,21.9065,VALID,357,VALID,0.0015625,
2009-07-05, 00:49:04,VALID,1000.89,VALID,0,VALID,93.8291,VALID,0,VALID,21.9277,VALID,357,VALID,0.276953,
2009-07-05, 00:50:04,VALID,1000.85,VALID,0,VALID,93.8138,VALID,0,VALID,21.9277,VALID,357,VALID,0.3125,
2009-07-05, 00:51:04,VALID,1000.9,VALID,0,VALID,93.7757,VALID,0,VALID,21.9065,VALID,357,VALID,0.432813,
2009-07-05, 00:52:04,VALID,1000.86,VALID,0,VALID,93.6612,VALID,0,VALID,21.9082,VALID,357,VALID,0.395703,
2009-07-05, 00:53:04,VALID,1000.84,VALID,0,VALID,93.6231,VALID,0,VALID,21.8887,VALID,357,VALID,0.407422,
2009-07-05, 00:54:04,VALID,1000.85,VALID,0,VALID,93.6307,VALID,0,VALID,21.8496,VALID,357,VALID,0.530078,
2009-07-05, 00:55:04,VALID,1000.8,VALID,0,VALID,93.6383,VALID,0,VALID,21.8301,VALID,357,VALID,0.804297,
2009-07-05, 00:56:04,VALID,1000.83,VALID,0,VALID,93.5468,VALID,0,VALID,21.7911,VALID,4,VALID,0.978906,
2009-07-05, 00:57:04,VALID,1000.82,VALID,0,VALID,93.5315,VALID,0,VALID,21.7521,VALID,5,VALID,0.960938,
2009-07-05, 00:58:04,VALID,1000.8,VALID,0,VALID,93.3942,VALID,0,VALID,21.6936,VALID,8,VALID,0.798047,
2009-07-05, 00:59:04,VALID,1000.79,VALID,0,VALID,93.2874,VALID,0,VALID,21.5945,VALID,13,VALID,0.694141,
2009-07-05, 01:00:04,VALID,1000.78,VALID,0,VALID,93.3331,VALID,0,VALID,21.5961,VALID,15,VALID,0.596484,
2009-07-05, 01:01:04,VALID,1000.82,VALID,0,VALID,93.5315,VALID,0,VALID,21.5165,VALID,17,VALID,0.834375,
2009-07-05, 01:02:04,VALID,1000.8,VALID,0,VALID,93.5926,VALID,0,VALID,21.5165,VALID,17,VALID,0.546875,
2009-07-05, 01:03:04,VALID,1000.79,VALID,0,VALID,93.5544,VALID,0,VALID,21.497,VALID,17,VALID,0.404687,
2009-07-05, 01:04:04,VALID,1000.76,VALID,0,VALID,93.7146,VALID,0,VALID,21.4775,VALID,17,VALID,0.320313,
2009-07-05, 01:05:04,VALID,1000.77,VALID,0,VALID,93.7375,VALID,0,VALID,21.4986,VALID,17,VALID,0.194141,
2009-07-05, 01:06:04,VALID,1000.77,VALID,0,VALID,93.7528,VALID,0,VALID,21.458,VALID,17,VALID,0.00234375,
2009-07-05, 01:07:04,VALID,1000.73,VALID,0,VALID,93.8367,VALID,0,VALID,21.458,VALID,17,VALID,0.423438,
2009-07-05, 01:08:04,VALID,1000.69,VALID,0,VALID,93.9588,VALID,0,VALID,21.4775,VALID,17,VALID,0.379297,
2009-07-05, 01:09:04,VALID,1000.68,VALID,0,VALID,94.0122,VALID,0,VALID,21.4775,VALID,17,VALID,0.323438,
2009-07-05, 01:10:04,VALID,1000.64,VALID,0,VALID,94.0808,VALID,0,VALID,21.497,VALID,17,VALID,0.596094,
2009-07-05, 01:11:04,VALID,1000.63,VALID,0,VALID,94.2334,VALID,0,VALID,21.5571,VALID,17,VALID,0.726953,
2009-07-05, 01:12:04,VALID,1000.6,VALID,0,VALID,94.1343,VALID,0,VALID,21.5766,VALID,17,VALID,0.899219,
2009-07-05, 01:13:04,VALID,1000.58,VALID,0,VALID,94.18,VALID,0,VALID,21.5555,VALID,21,VALID,0.946094,
2009-07-05, 01:14:04,VALID,1000.58,VALID,0,VALID,94.0732,VALID,0,VALID,21.5766,VALID,27,VALID,0.851953,
2009-07-05, 01:15:04,VALID,1000.57,VALID,0,VALID,94.1571,VALID,0,VALID,21.575,VALID,27,VALID,0.688672,
2009-07-05, 01:16:04,VALID,1000.55,VALID,0,VALID,93.9664,VALID,0,VALID,21.5766,VALID,27,VALID,0.574219,
2009-07-05, 01:17:04,VALID,1000.56,VALID,0,VALID,93.9664,VALID,0,VALID,21.5571,VALID,27,VALID,0.684375,
2009-07-05, 01:18:04,VALID,1000.52,VALID,0,VALID,93.9206,VALID,0,VALID,21.536,VALID,26,VALID,0.588281,
2009-07-05, 01:19:04,VALID,1000.55,VALID,0,VALID,93.913,VALID,0,VALID,21.5165,VALID,10,VALID,0.553125,
2009-07-05, 01:20:04,VALID,1000.57,VALID,0,VALID,94.058,VALID,0,VALID,21.5555,VALID,10,VALID,0.632813,
2009-07-05, 01:21:04,VALID,1000.54,VALID,0,VALID,94.1266,VALID,0,VALID,21.6156,VALID,10,VALID,0.423047,
2009-07-05, 01:22:04,VALID,1000.52,VALID,0,VALID,94.119,VALID,0,VALID,21.614,VALID,10,VALID,0.424609,
2009-07-05, 01:23:04,VALID,1000.5,VALID,0,VALID,94.1266,VALID,0,VALID,21.6335,VALID,10,VALID,0.546094,
2009-07-05, 01:24:04,VALID,1000.46,VALID,0,VALID,94.1343,VALID,0,VALID,21.6741,VALID,10,VALID,0.353516,
2009-07-05, 01:25:04,VALID,1000.45,VALID,0,VALID,94.1648,VALID,0,VALID,21.7326,VALID,10,VALID,0.260156,
2009-07-05, 01:26:04,VALID,1000.49,VALID,0,VALID,94.0808,VALID,0,VALID,21.7131,VALID,10,VALID,0,
2009-07-05, 01:27:04,VALID,1000.43,VALID,0,VALID,93.9817,VALID,0,VALID,21.653,VALID,10,VALID,0,
2009-07-05, 01:28:04,VALID,1000.41,VALID,0,VALID,94.0045,VALID,0,VALID,21.6741,VALID,10,VALID,0,
2009-07-05, 01:29:04,VALID,1000.44,VALID,0,VALID,93.9893,VALID,0,VALID,21.6936,VALID,10,VALID,0.360938,
2009-07-05, 01:30:04,VALID,1000.4,VALID,0,VALID,94.0122,VALID,0,VALID,21.6936,VALID,10,VALID,0.259375,
2009-07-05, 01:31:04,VALID,1000.39,VALID,0,VALID,94.0503,VALID,0,VALID,21.653,VALID,10,VALID,0.196094,
2009-07-05, 01:32:04,VALID,1000.39,VALID,0,VALID,94.0656,VALID,0,VALID,21.692,VALID,10,VALID,0.198828,
2009-07-05, 01:33:04,VALID,1000.38,VALID,0,VALID,94.0351,VALID,0,VALID,21.692,VALID,10,VALID,0.354688,
2009-07-05, 01:34:04,VALID,1000.39,VALID,0,VALID,93.9969,VALID,0,VALID,21.7131,VALID,10,VALID,0.455859,
2009-07-05, 01:35:04,VALID,1000.35,VALID,0,VALID,93.9817,VALID,0,VALID,21.6725,VALID,51,VALID,0.742969,
2009-07-05, 01:36:04,VALID,1000.33,VALID,0,VALID,93.7909,VALID,0,VALID,21.6725,VALID,52,VALID,0.751172,
2009-07-05, 01:37:04,VALID,1000.33,VALID,0,VALID,93.6536,VALID,0,VALID,21.6741,VALID,52,VALID,0.614844,
2009-07-05, 01:38:04,VALID,1000.32,VALID,0,VALID,93.4552,VALID,0,VALID,21.5945,VALID,52,VALID,0.298828,
2009-07-05, 01:39:04,VALID,1000.34,VALID,0,VALID,93.4323,VALID,0,VALID,21.5961,VALID,52,VALID,0.229687,
2009-07-05, 01:40:04,VALID,1000.36,VALID,0,VALID,93.4857,VALID,0,VALID,21.5555,VALID,52,VALID,0,
2009-07-05, 01:41:04,VALID,1000.3,VALID,0,VALID,93.6002,VALID,0,VALID,21.536,VALID,52,VALID,0.0046875,
2009-07-05, 01:42:04,VALID,1000.34,VALID,0,VALID,93.6612,VALID,0.112286,VALID,21.5555,VALID,52,VALID,0.00585938,
2009-07-05, 01:43:04,VALID,1000.29,VALID,0,VALID,93.6231,VALID,0,VALID,21.536,VALID,52,VALID,0,
2009-07-05, 01:44:04,VALID,1000.28,VALID,0,VALID,93.6307,VALID,0,VALID,21.5571,VALID,52,VALID,0,
2009-07-05, 01:45:04,VALID,1000.25,VALID,0,VALID,93.646,VALID,0,VALID,21.5571,VALID,52,VALID,0,
2009-07-05, 01:46:04,VALID,1000.25,VALID,0,VALID,93.7451,VALID,0,VALID,21.536,VALID,52,VALID,0,
2009-07-05, 01:47:04,VALID,1000.24,VALID,0,VALID,93.8214,VALID,0,VALID,21.5555,VALID,52,VALID,0.0609375,
2009-07-05, 01:48:04,VALID,1000.26,VALID,0,VALID,93.8596,VALID,0,VALID,21.5555,VALID,52,VALID,0.536328,
2009-07-05, 01:49:04,VALID,1000.22,VALID,0,VALID,93.852,VALID,0,VALID,21.575,VALID,47,VALID,0.76875,
2009-07-05, 01:50:04,VALID,1000.23,VALID,0,VALID,93.974,VALID,0,VALID,21.5945,VALID,42,VALID,0.988672,
2009-07-05, 01:51:04,VALID,1000.21,VALID,0,VALID,94.058,VALID,0,VALID,21.653,VALID,42,VALID,1.02148,
2009-07-05, 01:52:04,VALID,1000.23,VALID,0,VALID,93.8138,VALID,0,VALID,21.6335,VALID,42,VALID,0.761719,
2009-07-05, 01:53:04,VALID,1000.2,VALID,0,VALID,93.5544,VALID,0,VALID,21.5961,VALID,42,VALID,0.455078,
2009-07-05, 01:54:04,VALID,1000.19,VALID,0,VALID,93.4552,VALID,0,VALID,21.5165,VALID,42,VALID,0.0410156,
2009-07-05, 01:55:04,VALID,1000.17,VALID,0,VALID,93.562,VALID,0,VALID,21.497,VALID,42,VALID,0,
2009-07-05, 01:56:04,VALID,1000.14,VALID,0,VALID,93.7604,VALID,0,VALID,21.536,VALID,42,VALID,0,
2009-07-05, 01:57:04,VALID,1000.16,VALID,0,VALID,93.8443,VALID,0,VALID,21.5555,VALID,42,VALID,0,
2009-07-05, 01:58:04,VALID,1000.14,VALID,0,VALID,93.852,VALID,0,VALID,21.5555,VALID,42,VALID,0,
2009-07-05, 01:59:04,VALID,1000.13,VALID,0,VALID,93.9283,VALID,0,VALID,21.5555,VALID,42,VALID,0,
2009-07-05, 02:00:04,VALID,1000.14,VALID,0,VALID,93.9283,VALID,0,VALID,21.5766,VALID,42,VALID,0,
2009-07-05, 02:01:04,VALID,1000.13,VALID,0,VALID,93.8748,VALID,0,VALID,21.5571,VALID,42,VALID,0,
2009-07-05, 02:02:04,VALID,1000.11,VALID,0,VALID,93.8977,VALID,0,VALID,21.5571,VALID,42,VALID,0,
2009-07-05, 02:03:04,VALID,1000.11,VALID,0,VALID,93.8977,VALID,0,VALID,21.5165,VALID,42,VALID,0,
2009-07-05, 02:04:04,VALID,1000.11,VALID,0,VALID,93.9206,VALID,0,VALID,21.5165,VALID,42,VALID,0,
2009-07-05, 02:05:04,VALID,1000.07,VALID,0,VALID,93.9893,VALID,0,VALID,21.497,VALID,42,VALID,0,
2009-07-05, 02:06:04,VALID,1000.07,VALID,0,VALID,93.9893,VALID,0,VALID,21.5165,VALID,42,VALID,0,
2009-07-05, 02:07:04,VALID,1000.05,VALID,0,VALID,94.0427,VALID,0,VALID,21.5165,VALID,42,VALID,0,
2009-07-05, 02:08:04,VALID,1000.03,VALID,0,VALID,94.0961,VALID,0,VALID,21.536,VALID,42,VALID,0,
2009-07-05, 02:09:04,VALID,1000.01,VALID,0,VALID,94.1495,VALID,0.112286,VALID,21.536,VALID,42,VALID,0,
2009-07-05, 02:10:04,VALID,1000.01,VALID,0,VALID,94.18,VALID,0,VALID,21.5555,VALID,42,VALID,0,
2009-07-05, 02:11:04,VALID,1000,VALID,0,VALID,94.1266,VALID,0,VALID,21.5555,VALID,42,VALID,0,
2009-07-05, 02:12:04,VALID,999.964,VALID,0,VALID,94.1724,VALID,0,VALID,21.536,VALID,38,VALID,0,
2009-07-05, 02:13:04,VALID,999.988,VALID,0,VALID,94.2029,VALID,0,VALID,21.5961,VALID,349,VALID,0.829297,
2009-07-05, 02:14:04,VALID,999.995,VALID,0,VALID,94.1343,VALID,0,VALID,21.536,VALID,349,VALID,0.857031,
2009-07-05, 02:15:04,VALID,999.999,VALID,0,VALID,93.9969,VALID,0,VALID,21.497,VALID,349,VALID,0.810547,
2009-07-05, 02:16:04,VALID,999.987,VALID,0,VALID,94.0045,VALID,0,VALID,21.4986,VALID,349,VALID,0.81875,
2009-07-05, 02:17:04,VALID,1000.02,VALID,0,VALID,94.1037,VALID,0,VALID,21.4791,VALID,349,VALID,0.644922,
2009-07-05, 02:18:04,VALID,1000.01,VALID,0,VALID,94.1953,VALID,0,VALID,21.4775,VALID,349,VALID,0.484766,
2009-07-05, 02:19:04,VALID,999.999,VALID,0,VALID,94.1724,VALID,0,VALID,21.4791,VALID,349,VALID,0.447656,
2009-07-05, 02:20:04,VALID,999.995,VALID,0,VALID,94.2945,VALID,0,VALID,21.497,VALID,349,VALID,0.506641,
2009-07-05, 02:21:04,VALID,999.988,VALID,0,VALID,94.2029,VALID,0,VALID,21.458,VALID,349,VALID,0.3375,
2009-07-05, 02:22:04,VALID,999.987,VALID,0,VALID,94.2411,VALID,0.112286,VALID,21.458,VALID,349,VALID,0.36875,
2009-07-05, 02:23:04,VALID,999.966,VALID,0,VALID,94.3784,VALID,0,VALID,21.4775,VALID,349,VALID,0.639453,
2009-07-05, 02:24:04,VALID,999.96,VALID,0,VALID,94.5234,VALID,0,VALID,21.5165,VALID,28,VALID,0.886719,
2009-07-05, 02:25:04,VALID,999.994,VALID,0,VALID,94.386,VALID,0,VALID,21.536,VALID,44,VALID,0.822266,
2009-07-05, 02:26:04,VALID,999.942,VALID,0,VALID,94.2182,VALID,0,VALID,21.5165,VALID,60,VALID,0.859766,
2009-07-05, 02:27:04,VALID,999.928,VALID,0,VALID,94.1724,VALID,0,VALID,21.5181,VALID,60,VALID,0.794922,
2009-07-05, 02:28:04,VALID,999.922,VALID,0,VALID,94.0351,VALID,0.112286,VALID,21.5165,VALID,57,VALID,0.607813,
2009-07-05, 02:29:04,VALID,999.879,VALID,0,VALID,93.8672,VALID,0,VALID,21.4775,VALID,56,VALID,0.696484,
2009-07-05, 02:30:04,VALID,999.866,VALID,0,VALID,93.6307,VALID,0.112286,VALID,21.4775,VALID,56,VALID,0.553516,
2009-07-05, 02:31:04,VALID,999.837,VALID,0,VALID,93.646,VALID,0,VALID,21.458,VALID,56,VALID,0.834375,
2009-07-05, 02:32:04,VALID,999.825,VALID,0,VALID,93.5849,VALID,0,VALID,21.458,VALID,54,VALID,0.729688,
2009-07-05, 02:33:04,VALID,999.784,VALID,0,VALID,93.4476,VALID,0,VALID,21.419,VALID,54,VALID,0.624609,
2009-07-05, 02:34:04,VALID,999.792,VALID,0,VALID,93.44,VALID,0,VALID,21.38,VALID,54,VALID,0.407031,
2009-07-05, 02:35:04,VALID,999.783,VALID,0,VALID,93.4705,VALID,0,VALID,21.3816,VALID,54,VALID,0.392188,
2009-07-05, 02:36:04,VALID,999.811,VALID,0,VALID,93.5086,VALID,0,VALID,21.3605,VALID,54,VALID,0.336328,
2009-07-05, 02:37:04,VALID,999.806,VALID,0,VALID,93.4705,VALID,0,VALID,21.3215,VALID,54,VALID,0.351172,
2009-07-05, 02:38:04,VALID,999.821,VALID,0,VALID,93.5391,VALID,0,VALID,21.302,VALID,54,VALID,0.369531,
2009-07-05, 02:39:04,VALID,999.841,VALID,0,VALID,93.6002,VALID,0,VALID,21.2825,VALID,54,VALID,0.517187,
2009-07-05, 02:40:04,VALID,999.879,VALID,0,VALID,93.6307,VALID,0,VALID,21.263,VALID,54,VALID,0.446094,
2009-07-05, 02:41:04,VALID,999.911,VALID,0,VALID,93.6841,VALID,0,VALID,21.2841,VALID,46,VALID,0.652734,
2009-07-05, 02:42:04,VALID,999.888,VALID,0,VALID,93.6078,VALID,0,VALID,21.2451,VALID,45,VALID,0.780078,
2009-07-05, 02:43:04,VALID,999.924,VALID,0,VALID,93.707,VALID,0,VALID,21.224,VALID,37,VALID,1.02852,
2009-07-05, 02:44:04,VALID,999.919,VALID,0,VALID,93.6307,VALID,0,VALID,21.2045,VALID,37,VALID,1.12617,
2009-07-05, 02:45:04,VALID,999.932,VALID,0,VALID,93.4857,VALID,0,VALID,21.185,VALID,31,VALID,1.35547,
2009-07-05, 02:46:04,VALID,999.933,VALID,0,VALID,93.4476,VALID,0,VALID,21.1655,VALID,29,VALID,1.4918,
2009-07-05, 02:47:04,VALID,999.939,VALID,0,VALID,93.5163,VALID,0,VALID,21.1265,VALID,29,VALID,1.38437,
2009-07-05, 02:48:04,VALID,999.958,VALID,0,VALID,93.5773,VALID,0,VALID,21.107,VALID,27,VALID,1.29141,
2009-07-05, 02:49:04,VALID,999.989,VALID,0,VALID,93.5163,VALID,0,VALID,21.1086,VALID,26,VALID,1.28906,
2009-07-05, 02:50:04,VALID,999.959,VALID,0,VALID,93.5315,VALID,0,VALID,21.0891,VALID,24,VALID,1.31758,
2009-07-05, 02:51:04,VALID,1000.01,VALID,0,VALID,93.5773,VALID,0,VALID,21.029,VALID,23,VALID,1.16016,
2009-07-05, 02:52:04,VALID,1000.02,VALID,0,VALID,93.6307,VALID,0,VALID,21.029,VALID,23,VALID,1.25586,
2009-07-05, 02:53:04,VALID,1000.02,VALID,0,VALID,93.7375,VALID,0,VALID,21.0501,VALID,23,VALID,1.23242,
2009-07-05, 02:54:05,VALID,1000.01,VALID,0,VALID,93.6917,VALID,0,VALID,21.0501,VALID,23,VALID,1.17695,
2009-07-05, 02:55:05,VALID,999.98,VALID,0,VALID,93.6765,VALID,0,VALID,20.99,VALID,23,VALID,1.07344,
2009-07-05, 02:56:05,VALID,1000,VALID,0,VALID,93.5544,VALID,0,VALID,20.951,VALID,26,VALID,1.15664,
2009-07-05, 02:57:05,VALID,1000.01,VALID,0,VALID,93.7451,VALID,0,VALID,20.951,VALID,26,VALID,1.02617,
2009-07-05, 02:58:05,VALID,1000.01,VALID,0,VALID,93.8672,VALID,0,VALID,20.9526,VALID,26,VALID,1.26602,
2009-07-05, 02:59:05,VALID,999.99,VALID,0,VALID,94.0427,VALID,0,VALID,20.9916,VALID,26,VALID,1.38906,
2009-07-05, 03:00:05,VALID,1000.02,VALID,0,VALID,94.0885,VALID,0,VALID,20.9705,VALID,25,VALID,1.41875,
2009-07-05, 03:01:05,VALID,1000.01,VALID,0,VALID,94.1953,VALID,0,VALID,21.0306,VALID,26,VALID,1.41484,
2009-07-05, 03:02:05,VALID,999.973,VALID,0,VALID,94.0656,VALID,0,VALID,21.0111,VALID,23,VALID,1.18633,
2009-07-05, 03:03:05,VALID,999.991,VALID,0,VALID,94.0961,VALID,0,VALID,21.0111,VALID,22,VALID,1.22656,
2009-07-05, 03:04:05,VALID,999.939,VALID,0,VALID,94.0351,VALID,0,VALID,20.9705,VALID,23,VALID,1.04648,
2009-07-05, 03:05:05,VALID,999.923,VALID,0,VALID,94.058,VALID,0,VALID,21.0111,VALID,23,VALID,1.03398,
2009-07-05, 03:06:05,VALID,999.925,VALID,0,VALID,94.058,VALID,0,VALID,20.99,VALID,24,VALID,1.04062,
2009-07-05, 03:07:05,VALID,999.868,VALID,0,VALID,94.0961,VALID,0,VALID,21.0111,VALID,25,VALID,1.11055,
2009-07-05, 03:08:05,VALID,999.854,VALID,0,VALID,94.2334,VALID,0,VALID,21.0306,VALID,29,VALID,1.30703,
2009-07-05, 03:09:05,VALID,999.844,VALID,0,VALID,94.0808,VALID,0,VALID,21.0501,VALID,31,VALID,1.34805,
2009-07-05, 03:10:05,VALID,999.839,VALID,0,VALID,93.9664,VALID,0,VALID,21.0501,VALID,35,VALID,1.25391,
2009-07-05, 03:11:05,VALID,999.821,VALID,0,VALID,93.9664,VALID,0,VALID,21.0485,VALID,40,VALID,1.14414,
2009-07-05, 03:12:05,VALID,999.84,VALID,0,VALID,94.0045,VALID,0,VALID,21.0891,VALID,43,VALID,0.966406,
2009-07-05, 03:13:05,VALID,999.81,VALID,0,VALID,94.0656,VALID,0,VALID,21.1086,VALID,46,VALID,0.844141,
2009-07-05, 03:14:05,VALID,999.84,VALID,0,VALID,94.1495,VALID,0,VALID,21.107,VALID,54,VALID,0.810547,
2009-07-05, 03:15:05,VALID,999.852,VALID,0,VALID,94.1724,VALID,0,VALID,21.1671,VALID,55,VALID,0.720312,
2009-07-05, 03:16:05,VALID,999.84,VALID,0,VALID,94.1266,VALID,0,VALID,21.1866,VALID,61,VALID,0.789844,
2009-07-05, 03:17:05,VALID,999.869,VALID,0,VALID,93.974,VALID,0,VALID,21.1655,VALID,61,VALID,0.423438,
2009-07-05, 03:18:05,VALID,999.894,VALID,0,VALID,93.9359,VALID,0,VALID,21.146,VALID,61,VALID,0.349609,
2009-07-05, 03:19:05,VALID,999.89,VALID,0,VALID,93.9435,VALID,0,VALID,21.1671,VALID,61,VALID,0.34375,
2009-07-05, 03:20:05,VALID,999.94,VALID,0,VALID,93.9283,VALID,0,VALID,21.146,VALID,61,VALID,0.352344,
2009-07-05, 03:21:05,VALID,999.938,VALID,0,VALID,93.8672,VALID,0,VALID,21.1265,VALID,61,VALID,0.326172,
2009-07-05, 03:22:05,VALID,999.939,VALID,0,VALID,93.7985,VALID,0,VALID,21.107,VALID,61,VALID,0.285937,
2009-07-05, 03:23:05,VALID,999.942,VALID,0,VALID,93.7757,VALID,0,VALID,21.107,VALID,61,VALID,0.369141,
2009-07-05, 03:24:05,VALID,999.958,VALID,0,VALID,93.7604,VALID,0,VALID,21.0891,VALID,61,VALID,0.605078,
2009-07-05, 03:25:05,VALID,999.956,VALID,0,VALID,93.9893,VALID,0,VALID,21.107,VALID,60,VALID,0.719141,
2009-07-05, 03:26:05,VALID,999.959,VALID,0,VALID,94.264,VALID,0,VALID,21.146,VALID,60,VALID,0.76875,
2009-07-05, 03:27:05,VALID,999.978,VALID,0,VALID,94.0961,VALID,0,VALID,21.185,VALID,59,VALID,0.601953,
2009-07-05, 03:28:05,VALID,999.973,VALID,0,VALID,94.0808,VALID,0,VALID,21.146,VALID,22,VALID,0.575781,
2009-07-05, 03:29:05,VALID,999.989,VALID,0,VALID,94.1419,VALID,0,VALID,21.2061,VALID,22,VALID,0.548047,
2009-07-05, 03:30:05,VALID,999.992,VALID,0,VALID,93.9283,VALID,0,VALID,21.1655,VALID,15,VALID,0.473828,
2009-07-05, 03:31:05,VALID,1000.02,VALID,0,VALID,93.8748,VALID,0,VALID,21.1476,VALID,15,VALID,0.317969,
2009-07-05, 03:32:05,VALID,1000.01,VALID,0,VALID,93.8596,VALID,0,VALID,21.1476,VALID,15,VALID,0.398438,
2009-07-05, 03:33:05,VALID,1000.01,VALID,0,VALID,93.8748,VALID,0,VALID,21.107,VALID,15,VALID,0.382422,
2009-07-05, 03:34:05,VALID,1000,VALID,0,VALID,93.9664,VALID,0,VALID,21.107,VALID,15,VALID,0.461719,
2009-07-05, 03:35:05,VALID,999.994,VALID,0,VALID,94.0351,VALID,0,VALID,21.1265,VALID,15,VALID,0.472656,
2009-07-05, 03:36:05,VALID,1000,VALID,0,VALID,94.0274,VALID,0,VALID,21.1265,VALID,15,VALID,0.185547,
2009-07-05, 03:37:05,VALID,1000.01,VALID,0,VALID,94.0198,VALID,0,VALID,21.1265,VALID,15,VALID,0,
2009-07-05, 03:38:05,VALID,1000.01,VALID,0,VALID,94.0045,VALID,0,VALID,21.107,VALID,15,VALID,0,
2009-07-05, 03:39:05,VALID,1000.04,VALID,0,VALID,94.0274,VALID,0,VALID,21.0875,VALID,15,VALID,0,
2009-07-05, 03:40:05,VALID,1000.03,VALID,0,VALID,94.0122,VALID,0,VALID,21.0875,VALID,15,VALID,0,
2009-07-05, 03:41:05,VALID,1000,VALID,0,VALID,94.0045,VALID,0,VALID,21.068,VALID,15,VALID,0,
2009-07-05, 03:42:05,VALID,1000,VALID,0,VALID,93.9893,VALID,0,VALID,21.0891,VALID,15,VALID,0,
2009-07-05, 03:43:05,VALID,1000.03,VALID,0,VALID,94.0122,VALID,0.112286,VALID,21.0485,VALID,15,VALID,0,
2009-07-05, 03:44:05,VALID,1000.01,VALID,0,VALID,94.0732,VALID,0,VALID,21.0485,VALID,15,VALID,0,
2009-07-05, 03:45:05,VALID,999.993,VALID,0,VALID,94.1343,VALID,0,VALID,21.1086,VALID,15,VALID,0,
2009-07-05, 03:46:05,VALID,1000.01,VALID,0,VALID,94.2105,VALID,0,VALID,21.1265,VALID,15,VALID,0,
2009-07-05, 03:47:05,VALID,1000.02,VALID,0,VALID,94.264,VALID,0,VALID,21.146,VALID,15,VALID,0,
2009-07-05, 03:48:05,VALID,1000.04,VALID,0,VALID,94.3097,VALID,0,VALID,21.1655,VALID,15,VALID,0,
2009-07-05, 03:49:05,VALID,999.978,VALID,0,VALID,94.3326,VALID,0,VALID,21.2061,VALID,15,VALID,0.193359,